Overview Statistics Trail Chart Weather Telemetry Raw packets
 

This is the latest recevied weather packets stored in our database for station/object ANJALA. If no packets are shown the sender has not sent any weather packets the latest 10 day(s).

<< 1 2 3 4 5 6 7 >>
Time Temp. Humidity Pressure Rain* Wind** Luminosity Snow
1788566687 7.78° C 100% - 0 mm - - -
1788564286 8.33° C 100% - 0 mm - - -
1788563086 7.78° C 100% - 0 mm - - -
1788561886 8.33° C 100% - 0 mm - - -
1788560686 8.33° C 100% - 0 mm - - -
1788559275 8.89° C 100% - 0 mm - - -
1788558286 8.89° C 100% - 0 mm - - -
1788556875 8.33° C 99% - 0 mm - - -
1788555885 8.89° C 99% - 0 mm - - -
1788553487 8.89° C 99% - 0 mm - - -
1788552287 9.44° C 99% - 0 mm - - -
1788551086 9.44° C 99% - 0 mm - - -
1788549885 9.44° C 99% - 0 mm - - -
1788548685 10° C 99% - 0 mm - - -
1788547485 10° C 99% - 0 mm - - -
1788546287 10.56° C 99% - 0 mm - - -
1788544874 10.56° C 98% - 0 mm - - -
1788543885 11.11° C 98% - 0 mm - - -
1788542684 11.67° C 96% - 0 mm - - -
1788541484 12.78° C 94% - 0 mm - - -
1788539084 13.89° C 87% - 0 mm - - -
1788537887 14.44° C 84% - 0 mm - - -
1788536684 14.44° C 82% - 0 mm - - -
1788535484 14.44° C 86% - 0 mm - - -
1788531884 15° C 87% - 2.29 mm - - -

* Rain latest hour (hover to see other rain measurements)
** Current wind speed in m/s (hover to see current wind gust speed)